Home   Weather   Holyhead   Past weeks
Flag for United Kingdom

Past Weather in Holyhead, Wales, United Kingdom — Yesterday and Last 2 Weeks

Now
64 °F

Passing clouds.


Feels Like: 64 °F
Forecast: 61 / 58 °F
Wind: 13 mph from Southwest

Location: Valley

Current Time: Jul 16, 2019 at 3:56:38 pm

Latest Report: Jul 16, 2019 at 2:50 pm


Visibility: N/A

Pressure: 30.09 "Hg

Humidity: 78%

Dew Point: 57 °F

Location of HolyheadLocation

Past Weather in Holyhead — Graph

°F

Holyhead Temperature Yesterday

Maximum temperature yesterday: 68 °F (at 9:50 am)
Minimum temperature yesterday: 57 °F (at 12:50 am)
Average temperature yesterday: 64 °F

High & Low Weather Summary for the Past Weeks

 TemperatureHumidityPressure
High68 °F (Jul 4, 2:20 pm)100% (Jul 4, 6:50 am)30.39 "Hg (Jul 4, 6:50 am)
Low48 °F (Jul 3, 3:50 am)56% (Jul 3, 3:50 pm)29.86 "Hg (Jul 11, 4:50 am)
Average60 °F80%30.14 "Hg
* Reported Jul 1 2:25 pm — Jul 16 2:23 pm, Holyhead. Weather by CustomWeather, © 2019

Note: Actual official high and low records may vary slightly from our data, if they occured in-between our weather recording intervals... More about our weather records

Advertising

Holyhead Weather History for the Previous 24 Hours

Scroll right to see more
 ConditionsComfort  
Time TempWeatherWind HumidityBarometerVisibility
2:23 pm
Tue, Jul 16
66 °FPassing clouds.13 mph78%30.09 "HgN/A
1:50 pm64 °FPassing clouds.13 mph78%30.09 "HgN/A
1:24 pm66 °FPassing clouds.13 mph78%30.09 "HgN/A
12:50 pm66 °FPassing clouds.12 mph78%30.09 "HgN/A
12:20 pm66 °FPassing clouds.13 mph78%30.09 "HgN/A
11:50 am66 °FPassing clouds.13 mph78%30.09 "HgN/A
11:20 am64 °FPassing clouds.14 mph83%30.09 "HgN/A
10:50 am66 °FPassing clouds.13 mph78%30.09 "HgN/A
10:20 am64 °FPassing clouds.13 mph78%30.09 "HgN/A
9:50 am64 °FPassing clouds.13 mph78%30.09 "HgN/A
9:22 am64 °FPassing clouds.13 mph83%30.09 "HgN/A
8:50 am63 °FPassing clouds.13 mph88%30.12 "HgN/A
7:50 am61 °FScattered clouds.12 mph94%30.09 "HgN/A
6:50 am59 °FPassing clouds.10 mph100%30.09 "HgN/A
5:50 am59 °FPartly sunny.12 mph94%30.09 "HgN/A
4:50 am59 °FPassing clouds.10 mph94%30.09 "HgN/A
3:50 am59 °FPassing clouds.9 mph94%30.12 "HgN/A
2:50 am59 °FPassing clouds.12 mph94%30.12 "HgN/A
1:50 am59 °FCool.8 mph94%30.12 "HgN/A
12:50 am59 °FCool.9 mph94%30.12 "HgN/A
11:50 pm
Mon, Jul 15
59 °FPassing clouds.10 mph94%30.12 "HgN/A
10:50 pm59 °FCool.9 mph94%30.12 "HgN/A
9:50 pm61 °FCool.9 mph88%30.12 "HgN/A
8:50 pm61 °FCool.8 mph83%30.12 "HgN/A
7:50 pm64 °FSunny.9 mph78%30.12 "Hg10 mi
6:50 pm64 °FPartly sunny.9 mph78%30.12 "HgN/A
5:50 pm64 °FPartly sunny.8 mph78%30.15 "HgN/A
5:20 pm66 °FPartly sunny.10 mph73%30.15 "HgN/A
4:50 pm66 °FPartly sunny.10 mph73%30.15 "HgN/A
4:22 pm66 °FPartly sunny.10 mph73%30.15 "HgN/A
3:50 pm66 °FPartly sunny.10 mph73%30.15 "HgN/A
3:25 pm68 °FPartly sunny.10 mph73%30.15 "HgN/A
Weather by CustomWeather, © 2019

See weather overview

LIVE PARTIAL LUNAR ECLIPSE – Watch the eclipse as it happens